Weather History for Guymon, OK

Change the Weather History Date:

Tuesday, January 15, 2013

  Actual Average Record
Temperature  
Mean Temperature 24 °F 36 °F  
Max Temperature 34 °F 50 °F 74 °F (2006)
Min Temperature 14 °F 22 °F 7 °F (2007)
Degree Days  
Heating Degree Days 41 29  
Month to date heating degree days 512 452  
Since 1 July heating degree days 2088 2269  
Cooling Degree Days 0 0  
Month to date cooling degree days 0 0  
Year to date cooling degree days 0 0  
Moisture  
Dew Point 14 °F    
Average Humidity 68    
Maximum Humidity 88    
Minimum Humidity 47    
Precipitation  
Precipitation T in 0.01 in 0.01 in (2005)
Month to date precipitation 0.30 0.10  
Year to date precipitation 0.30 0.10  
Snow  
Snow T in - - ()
Month to date snowfall T  
Since 1 July snowfall 3.2  
Snow Depth T in    
Sea Level Pressure  
Sea Level Pressure 30.23 in    
Wind  
Wind Speed 6 mph (West)    
Max Wind Speed 15 mph    
Max Gust Speed 21 mph    
Visibility 10 miles    
Events Snow    
T = Trace of Precipitation, MM = Missing Value Source: NWS Daily Summary

Daily Weather History Graph

Daily Weather History Graph

Search for Another Location

Airport:

Trip Planner

Search our weather history database for the weather conditions in past years. The results will help you decide how hot, cold, wet, or windy it might be!

Date:

Astronomy

Jan. 15, 2013 Rise Set
Actual Time 7:57 AM CST 5:54 PM CST
Civil Twilight 7:29 AM CST 6:22 PM CST
Nautical Twilight 6:57 AM CST 6:54 PM CST
Astronomical Twilight 6:26 AM CST 7:25 PM CST
Moon 10:12 AM CST (1/15) 10:36 PM CST (1/15)
Length of Visible Light 10h 52m
Length of Day
9h 56m
Waxing Crescent, 19% of the Moon is Illuminated
Jan 15
Waxing Crescent
Jan 18
First Quarter
Jan 26
Full
Feb 3
Last Quarter
Feb 10
New

Hourly Weather History & Observations

Time (CST) Temp. Windchill Dew Point Humidity Pressure Visibility Wind Dir Wind Speed Gust Speed Precip Events Conditions
12:53 AM 23.0 °F 18.4 °F 17.1 °F 78% 30.25 in 7.0 mi SSW 3.5 mph - 0.00 in Snow Light Snow
1:35 AM 21.2 °F 16.4 °F 17.6 °F 86% 30.17 in 10.0 mi South 3.5 mph - 0.00 in   Overcast
1:51 AM 21.2 °F 16.4 °F 15.8 °F 80% 30.17 in 10.0 mi South 3.5 mph - 0.00 in   Scattered Clouds
1:53 AM 21.0 °F - 16.0 °F 81% 30.24 in 10.0 mi Calm Calm - 0.00 in   Partly Cloudy
2:53 AM 19.9 °F - 15.1 °F 81% 30.24 in 10.0 mi Calm Calm - N/A   Clear
3:53 AM 19.0 °F 10.0 °F 16.0 °F 88% 30.25 in 10.0 mi SSE 6.9 mph - N/A   Overcast
4:53 AM 19.0 °F - 15.1 °F 85% 30.25 in 7.0 mi Calm Calm - 0.00 in Snow Light Snow
5:00 AM 17.6 °F - 15.8 °F 93% 30.18 in 8.0 mi Calm Calm - 0.00 in Snow Light Snow
5:53 AM 16.0 °F 8.8 °F 12.9 °F 88% 30.25 in 10.0 mi SW 4.6 mph - 0.00 in   Mostly Cloudy
6:11 AM 15.8 °F 7.2 °F 12.2 °F 86% 30.18 in 10.0 mi WSW 5.8 mph - N/A   Partly Cloudy
6:53 AM 16.0 °F 6.3 °F 12.0 °F 84% 30.25 in 10.0 mi WNW 6.9 mph - N/A   Clear
7:53 AM 14.0 °F 6.5 °F 9.0 °F 80% 30.27 in 10.0 mi West 4.6 mph - N/A   Clear
8:53 AM 17.1 °F 11.7 °F 12.0 °F 81% 30.27 in 10.0 mi WSW 3.5 mph - N/A   Clear
9:53 AM 23.0 °F 13.1 °F 17.1 °F 78% 30.26 in 10.0 mi West 9.2 mph - N/A   Clear
10:38 AM 24.8 °F 13.4 °F 17.6 °F 74% 30.20 in 10.0 mi NW 12.7 mph - N/A   Mostly Cloudy
10:53 AM 25.0 °F 14.2 °F 16.0 °F 69% 30.27 in 10.0 mi NNW 11.5 mph - N/A   Scattered Clouds
11:53 AM 28.0 °F 17.5 °F 16.0 °F 61% 30.25 in 10.0 mi NNW 12.7 mph - N/A   Clear
12:53 PM 30.9 °F 21.2 °F 15.1 °F 52% 30.21 in 10.0 mi NNW 12.7 mph - N/A   Clear
1:53 PM 32.0 °F 23.6 °F 15.1 °F 50% 30.19 in 10.0 mi NW 10.4 mph - N/A   Clear
2:53 PM 33.1 °F 24.4 °F 15.1 °F 48% 30.19 in 10.0 mi NW 11.5 mph - N/A   Clear
3:53 PM 33.1 °F 24.4 °F 15.1 °F 48% 30.20 in 10.0 mi North 11.5 mph - N/A   Clear
4:53 PM 32.0 °F 24.8 °F 15.1 °F 50% 30.21 in 10.0 mi NNW 8.1 mph - N/A   Clear
5:53 PM 28.9 °F 25.2 °F 15.1 °F 56% 30.24 in 10.0 mi North 3.5 mph - N/A   Clear
6:53 PM 27.0 °F 21.6 °F 15.1 °F 61% 30.24 in 10.0 mi NW 4.6 mph - N/A   Clear
7:53 PM 21.9 °F 17.2 °F 12.9 °F 68% 30.27 in 10.0 mi WSW 3.5 mph - N/A   Clear
8:53 PM 18.0 °F 9.8 °F 10.9 °F 74% 30.26 in 10.0 mi WSW 5.8 mph - N/A   Clear
9:53 PM 18.0 °F 9.8 °F 10.9 °F 74% 30.25 in 10.0 mi WSW 5.8 mph - N/A   Clear
10:53 PM 19.9 °F 12.1 °F 12.9 °F 74% 30.22 in 10.0 mi West 5.8 mph - N/A   Clear
11:53 PM 19.0 °F 10.0 °F 12.0 °F 74% 30.22 in 10.0 mi WSW 6.9 mph - N/A   Clear